TimeCST,TemperatureF,Dew PointF,Humidity,Sea Level PressureIn,VisibilityMPH,Wind Direction,Wind SpeedMPH,Gust SpeedMPH,PrecipitationIn,Events,Conditions,WindDirDegrees,DateUTC
12:51 AM,33.8,28.4,81,29.74,6.0,NNE,17.3,28.8,0.04,Rain,Rain,30,2012-12-26 06:51:00
12:54 AM,33.1,28.9,85,29.76,6.0,NNE,19.6,28.8,0.04,Rain,Light Freezing Rain,30,2012-12-26 06:54:00
1:24 AM,33.8,28.4,81,29.73,7.0,NNE,21.9,28.8,0.04,Rain,Light Freezing Rain,30,2012-12-26 07:24:00
1:43 AM,33.8,28.4,81,29.70,6.0,NNE,18.4,31.1,0.06,Rain,Light Freezing Rain,30,2012-12-26 07:43:00
1:54 AM,33.1,28.9,85,29.71,7.0,NNE,17.3,27.6,0.07,Rain,Light Freezing Rain,30,2012-12-26 07:54:00
2:07 AM,33.8,28.4,81,29.69,7.0,NNE,23.0,28.8,0.02,Rain,Light Freezing Rain,20,2012-12-26 08:07:00
2:54 AM,33.8,28.4,81,29.67,3.0,NNE,19.6,25.3,N/A,Snow,Light Snow,20,2012-12-26 08:54:00
3:07 AM,33.8,30.2,87,29.65,2.5,North,18.4,32.2,0.05,Snow,Light Snow,10,2012-12-26 09:07:00
3:24 AM,33.8,30.2,87,29.64,1.2,NNE,20.7,28.8,0.13,Snow,Light Snow,20,2012-12-26 09:24:00
3:33 AM,33.8,30.2,87,29.63,0.8,North,25.3,29.9,0.16,Snow-Thunderstorm,Light Snow,10,2012-12-26 09:33:00
3:48 AM,33.8,30.2,87,29.61,0.8,NNE,20.7,34.5,0.27,,Mist,20,2012-12-26 09:48:00
3:54 AM,33.1,30.0,89,29.63,1.2,North,19.6,31.1,0.33,Snow,Light Snow,10,2012-12-26 09:54:00
4:00 AM,33.8,30.2,87,29.62,2.0,NNE,16.1,31.1,0.02,Snow,Light Snow,20,2012-12-26 10:00:00
4:14 AM,33.8,30.2,87,29.61,1.2,North,20.7,29.9,0.06,Snow,Light Snow,10,2012-12-26 10:14:00
4:25 AM,33.8,30.2,87,29.61,0.8,NNE,18.4,31.1,0.11,,Overcast,20,2012-12-26 10:25:00
4:45 AM,33.8,30.2,87,29.60,0.5,NNE,17.3,25.3,N/A,Fog-Snow,Snow,20,2012-12-26 10:45:00
4:54 AM,33.1,30.0,89,29.62,0.5,NNE,18.4,24.2,0.24,Fog-Snow,Snow,20,2012-12-26 10:54:00
5:16 AM,33.8,30.2,87,29.60,1.0,NNE,18.4,-,N/A,Snow,Light Snow,20,2012-12-26 11:16:00
5:23 AM,33.8,30.2,87,29.60,1.2,NNE,18.4,26.5,0.13,Snow,Light Snow,20,2012-12-26 11:23:00
5:51 AM,33.8,30.2,87,29.61,0.5,North,18.4,26.5,0.17,Fog-Snow,Snow,10,2012-12-26 11:51:00
5:54 AM,33.1,30.0,89,29.62,0.5,North,19.6,27.6,0.17,Fog-Snow,Snow,10,2012-12-26 11:54:00
6:35 AM,32.0,30.2,93,29.62,1.0,North,17.3,23.0,0.07,Snow,Snow,360,2012-12-26 12:35:00
6:44 AM,33.8,30.2,87,29.62,1.5,North,16.1,25.3,0.08,Snow,Snow,360,2012-12-26 12:44:00
6:47 AM,33.8,30.2,87,29.62,1.0,North,17.3,31.1,0.08,Snow,Light Snow,360,2012-12-26 12:47:00
6:54 AM,33.1,28.9,85,29.63,1.0,North,19.6,31.1,0.09,Snow,Light Snow,360,2012-12-26 12:54:00
7:01 AM,32.0,28.4,87,29.62,1.5,North,17.3,29.9,0.00,Snow,Light Snow,360,2012-12-26 13:01:00
7:18 AM,32.0,28.4,87,29.62,1.2,North,18.4,28.8,0.00,Snow,Light Snow,360,2012-12-26 13:18:00
7:37 AM,32.0,28.4,87,29.63,1.0,North,16.1,28.8,0.01,Snow,Light Snow,360,2012-12-26 13:37:00
7:47 AM,32.0,28.4,87,29.64,1.0,North,17.3,28.8,0.02,Snow,Light Snow,360,2012-12-26 13:47:00
7:54 AM,32.0,28.9,88,29.65,1.0,North,17.3,25.3,0.02,Snow,Light Snow,350,2012-12-26 13:54:00
8:54 AM,33.1,30.0,89,29.69,1.0,North,11.5,21.9,0.02,Snow,Light Snow,350,2012-12-26 14:54:00
9:01 AM,33.8,28.4,81,29.68,1.8,North,13.8,21.9,0.00,Snow,Light Snow,350,2012-12-26 15:01:00
9:12 AM,33.8,28.4,81,29.69,1.0,North,16.1,25.3,0.00,Snow,Light Snow,350,2012-12-26 15:12:00
9:35 AM,32.0,28.4,87,29.70,1.5,NNW,15.0,25.3,0.00,Snow,Light Snow,340,2012-12-26 15:35:00
9:54 AM,32.0,28.9,88,29.72,1.8,North,13.8,25.3,0.00,Snow,Light Snow,350,2012-12-26 15:54:00
10:03 AM,33.8,28.4,81,29.71,2.5,North,17.3,23.0,0.00,Snow,Light Snow,350,2012-12-26 16:03:00
10:11 AM,33.8,28.4,81,29.71,4.0,North,15.0,24.2,0.00,Snow,Light Snow,350,2012-12-26 16:11:00
10:21 AM,33.8,28.4,81,29.71,4.0,North,19.6,26.5,0.00,Snow,Light Snow,350,2012-12-26 16:21:00
10:38 AM,33.8,28.4,81,29.72,5.0,North,13.8,24.2,0.00,Snow,Light Snow,350,2012-12-26 16:38:00
10:49 AM,33.8,28.4,81,29.72,2.5,North,16.1,25.3,0.00,Snow,Light Snow,350,2012-12-26 16:49:00
10:54 AM,33.1,28.9,85,29.74,1.5,NNW,18.4,27.6,0.00,Snow,Light Snow,340,2012-12-26 16:54:00
10:57 AM,33.8,28.4,81,29.73,1.2,North,17.3,28.8,0.00,Snow,Light Snow,350,2012-12-26 16:57:00
11:02 AM,33.8,28.4,81,29.73,2.0,NNW,15.0,28.8,0.00,Snow,Light Snow,340,2012-12-26 17:02:00
11:11 AM,33.8,28.4,81,29.73,5.0,NNW,17.3,25.3,0.00,Snow,Light Snow,340,2012-12-26 17:11:00
11:54 AM,33.1,28.0,82,29.76,5.0,NNW,16.1,25.3,0.00,,Overcast,330,2012-12-26 17:54:00
12:35 PM,33.8,26.6,75,29.77,10.0,NW,16.1,27.6,N/A,,Overcast,320,2012-12-26 18:35:00
12:54 PM,33.1,27.0,78,29.80,10.0,NNW,17.3,26.5,N/A,,Overcast,330,2012-12-26 18:54:00
1:32 PM,32.0,26.6,80,29.81,2.0,NNW,15.0,23.0,0.00,Snow,Light Snow,330,2012-12-26 19:32:00
1:54 PM,32.0,27.0,82,29.83,6.0,NNW,17.3,26.5,0.00,Snow,Light Snow,330,2012-12-26 19:54:00
2:12 PM,32.0,26.6,80,29.84,10.0,NW,16.1,28.8,0.00,,Overcast,320,2012-12-26 20:12:00
2:54 PM,32.0,26.1,79,29.88,10.0,NNW,19.6,25.3,0.00,,Overcast,330,2012-12-26 20:54:00
3:54 PM,32.0,26.1,79,29.92,10.0,NW,20.7,27.6,N/A,,Overcast,320,2012-12-26 21:54:00
4:20 PM,32.0,26.6,80,29.92,10.0,NW,13.8,-,N/A,,Overcast,320,2012-12-26 22:20:00
4:54 PM,32.0,26.1,79,29.96,10.0,NNW,15.0,24.2,0.00,Snow,Light Snow,330,2012-12-26 22:54:00
5:15 PM,32.0,26.6,80,29.97,10.0,NW,16.1,24.2,0.00,,Overcast,320,2012-12-26 23:15:00
5:54 PM,33.1,26.1,75,30.00,10.0,NW,11.5,19.6,0.00,,Overcast,320,2012-12-26 23:54:00
6:54 PM,33.1,26.1,75,30.03,10.0,NNW,10.4,20.7,N/A,,Overcast,340,2012-12-27 00:54:00
7:40 PM,33.8,26.6,75,30.03,10.0,NNW,8.1,-,N/A,,Overcast,330,2012-12-27 01:40:00
7:54 PM,33.1,26.1,75,30.06,10.0,NW,10.4,-,N/A,,Overcast,320,2012-12-27 01:54:00
8:17 PM,33.8,26.6,75,30.04,10.0,NW,10.4,-,N/A,,Overcast,320,2012-12-27 02:17:00
8:54 PM,33.1,27.0,78,30.07,10.0,NW,6.9,-,N/A,,Overcast,320,2012-12-27 02:54:00
9:54 PM,33.1,26.1,75,30.09,10.0,NW,9.2,-,N/A,,Overcast,320,2012-12-27 03:54:00
10:12 PM,33.8,26.6,75,30.08,10.0,NNW,8.1,-,N/A,,Overcast,330,2012-12-27 04:12:00
10:37 PM,33.8,26.6,75,30.08,10.0,NW,8.1,-,N/A,,Overcast,310,2012-12-27 04:37:00
10:46 PM,32.0,26.6,80,30.08,10.0,NW,5.8,-,N/A,,Overcast,320,2012-12-27 04:46:00
10:54 PM,33.1,26.1,75,30.10,10.0,NW,5.8,-,N/A,,Overcast,310,2012-12-27 04:54:00
11:46 PM,32.0,26.6,80,30.10,10.0,NW,8.1,-,N/A,,Overcast,310,2012-12-27 05:46:00
11:54 PM,32.0,26.1,79,30.11,10.0,WNW,8.1,-,N/A,,Overcast,300,2012-12-27 05:54:00